Buffalo, NY

9:43 PM EST on December 15, 2019 (GMT -0500)
Buffalo Niagara International

Weather History for KBUF - November, 2019

Change the Weather History Date:

Wednesday, November 13, 2019

  Actual Average Record
Temperature  
Mean Temperature 21 °F 42 °F  
Max Temperature 27 °F 49 °F 68 °F (1989)
Min Temperature 14 °F 35 °F 14 °F (2019)
Degree Days  
Heating Degree Days 44 23  
Month to date heating degree days 391 277  
Since 1 July heating degree days 825 882  
Cooling Degree Days 0 0  
Month to date cooling degree days 0 0  
Year to date cooling degree days 604 544  
Moisture  
Dew Point 14 °F    
Average Humidity 72    
Maximum Humidity 88    
Minimum Humidity 55    
Precipitation  
Precipitation T in 0.14 in 0.81 in (1937)
Month to date precipitation 1.64 1.70  
Year to date precipitation 42.12 34.28  
Snow  
Snow 0.10 in 0.20 in 7.00 in (1986)
Month to date snowfall 12.5 2.1  
Since 1 July snowfall 12.5 3.0  
Since 1 September snowfall 12.5 3.0  
Snow Depth 8.00 in    
Sea Level Pressure  
Sea Level Pressure 30.34 in    
Wind  
Wind Speed 5 mph (SSW)    
Max Wind Speed 14 mph    
Max Gust Speed 19 mph    
Visibility 10 miles    
Events Snow    
T = Trace of Precipitation, MM = Missing Value Source: NWS Daily Summary

Daily Weather History Graph

Daily Weather History Graph

Search for Another Location

Airport or City:

Astronomy

Nov. 13, 2019 Rise Set
Actual Time 7:04 AM EST 4:53 PM EST
Civil Twilight 6:33 AM EST 5:23 PM EST
Nautical Twilight 5:59 AM EST 5:58 PM EST
Astronomical Twilight 5:26 AM EST 6:31 PM EST
Moon 5:54 PM EST (11/13) 7:56 AM EST (11/13)
Length of Visible Light 10h 49m
Length of Day
9h 49m
Full, 99% of the Moon is Illuminated
Nov 13
Full
Nov 19
Last Quarter
Nov 26
New
Dec 4
First Quarter
Dec 12
Full

Hourly Weather History & Observations

Time (EST) Temp. Windchill Dew Point Humidity Pressure Visibility Wind Dir Wind Speed Gust Speed Precip Events Conditions
12:54 AM 19.0 °F 9.0 °F 12.9 °F 77% 30.28 in 10.0 mi West 8.1 mph - N/A   Mostly Cloudy
1:54 AM 19.0 °F 8.2 °F 10.9 °F 71% 30.29 in 10.0 mi West 9.2 mph - N/A   Mostly Cloudy
2:54 AM 18.0 °F 6.9 °F 12.0 °F 78% 30.29 in 10.0 mi West 9.2 mph - N/A   Mostly Cloudy
3:54 AM 18.0 °F 7.7 °F 12.0 °F 78% 30.31 in 10.0 mi West 8.1 mph - N/A   Scattered Clouds
4:54 AM 18.0 °F 8.7 °F 12.0 °F 78% 30.34 in 10.0 mi WNW 6.9 mph - 0.00 in   Mostly Cloudy
5:01 AM 17.1 °F 7.6 °F 12.0 °F 81% 30.30 in 10.0 mi WNW 6.9 mph - N/A   Mostly Cloudy
5:54 AM 16.0 °F 8.8 °F 12.0 °F 84% 30.35 in 9.0 mi West 4.6 mph - N/A   Overcast
6:08 AM 15.1 °F 7.7 °F 10.9 °F 84% 30.31 in 8.0 mi WNW 4.6 mph - N/A   Overcast
6:54 AM 14.0 °F 3.9 °F 10.9 °F 88% 30.38 in 7.0 mi WNW 6.9 mph - 0.00 in Snow Light Snow
7:54 AM 16.0 °F - 12.9 °F 88% 30.39 in 7.0 mi Calm Calm - 0.00 in   Mostly Cloudy
8:01 AM 16.0 °F - 12.9 °F 88% 30.34 in 10.0 mi Calm Calm - N/A   Scattered Clouds
8:12 AM 17.1 °F - 12.9 °F 84% 30.34 in 10.0 mi Calm Calm - N/A   Partly Cloudy
8:54 AM 17.1 °F - 14.0 °F 88% 30.40 in 10.0 mi Calm Calm - N/A   Partly Cloudy
9:54 AM 18.0 °F 12.7 °F 14.0 °F 84% 30.42 in 10.0 mi South 3.5 mph - N/A   Partly Cloudy
10:54 AM 23.0 °F - 14.0 °F 68% 30.42 in 10.0 mi Calm Calm - N/A   Partly Cloudy
11:54 AM 24.1 °F - 12.9 °F 62% 30.41 in 10.0 mi Calm Calm - 0.00 in Snow Light Snow
12:54 PM 24.1 °F 19.7 °F 12.9 °F 62% 30.41 in 10.0 mi Variable 3.5 mph - 0.00 in   Mostly Cloudy
1:54 PM 26.1 °F - 12.9 °F 58% 30.38 in 10.0 mi Calm Calm - N/A   Mostly Cloudy
2:54 PM 25.0 °F 19.3 °F 14.0 °F 63% 30.38 in 10.0 mi SW 4.6 mph - N/A   Overcast
3:54 PM 26.1 °F 21.9 °F 15.1 °F 63% 30.36 in 10.0 mi ESE 3.5 mph - N/A   Overcast
4:54 PM 26.1 °F 20.5 °F 15.1 °F 63% 30.33 in 10.0 mi East 4.6 mph - N/A   Overcast
5:54 PM 25.0 °F 16.3 °F 15.1 °F 66% 30.32 in 10.0 mi East 8.1 mph - N/A   Overcast
6:54 PM 24.1 °F 16.0 °F 15.1 °F 69% 30.32 in 10.0 mi ESE 6.9 mph - N/A   Overcast
7:54 PM 25.0 °F 17.1 °F 16.0 °F 69% 30.30 in 10.0 mi ESE 6.9 mph - N/A   Overcast
8:54 PM 27.0 °F 18.7 °F 17.1 °F 66% 30.29 in 10.0 mi SSE 8.1 mph - N/A   Overcast
9:54 PM 26.1 °F 18.4 °F 17.1 °F 69% 30.28 in 10.0 mi SE 6.9 mph - N/A   Overcast
10:54 PM 26.1 °F 18.4 °F 16.0 °F 66% 30.26 in 10.0 mi SE 6.9 mph - N/A   Overcast
11:54 PM 26.1 °F 19.4 °F 16.0 °F 66% 30.24 in 10.0 mi SSE 5.8 mph - N/A   Overcast